Valparaiso, IN

10:03 AM CDT on April 25, 2018 (GMT -0500)
Porter County Municipal

Weather History for KVPZ - January, 2014

Change the Weather History Date:

Saturday, January 25, 2014

  Actual Average Record
Temperature  
Mean Temperature 17 °F 24 °F  
Max Temperature 30 °F 31 °F 50 °F (2002)
Min Temperature 3 °F 16 °F -8 °F (2008)
Degree Days  
Heating Degree Days 48 41  
Month to date heating degree days 1064 1040  
Since 1 July heating degree days 3747 3442  
Cooling Degree Days 0 0  
Month to date cooling degree days 0 0  
Year to date cooling degree days 0 0  
Moisture  
Dew Point 14 °F    
Average Humidity 77    
Maximum Humidity 100    
Minimum Humidity 42    
Precipitation  
Precipitation T in 0.06 in 0.24 in (2005)
Month to date precipitation 0.93 1.40  
Year to date precipitation 0.93 1.40  
Sea Level Pressure  
Sea Level Pressure 29.57 in    
Wind  
Wind Speed 17 mph (West)    
Max Wind Speed 26 mph    
Max Gust Speed 39 mph    
Visibility 6 miles    
Events Rain , Snow    
T = Trace of Precipitation, MM = Missing Value Source: NWS Daily Summary

Daily Weather History Graph

Daily Weather History Graph

Search for Another Location

Airport or City:

Astronomy

Jan. 25, 2014 Rise Set
Actual Time 7:05 AM CST 4:55 PM CST
Civil Twilight 6:36 AM CST 5:25 PM CST
Nautical Twilight 6:02 AM CST 5:58 PM CST
Astronomical Twilight 5:29 AM CST 6:31 PM CST
Moon 1:37 AM CST 11:55 AM CST
Length of Visible Light 10h 49m
Length of Day
9h 49m
Waning Crescent, 34% of the Moon is Illuminated
Jan 25
Waning Crescent
Jan 30
New
Feb 6
First Quarter
Feb 14
Full
Feb 22
Last Quarter

Hourly Weather History & Observations

Time (CST) Temp. Windchill Dew Point Humidity Pressure Visibility Wind Dir Wind Speed Gust Speed Precip Events Conditions
12:25 AM 21.9 °F 6.2 °F 21.0 °F 96% 29.49 in 1.8 mi SW 21.9 mph 29.9 mph 0.00 in Snow Light Snow
12:44 AM 23.0 °F 8.7 °F 21.0 °F 92% 29.48 in 2.5 mi SW 18.4 mph - 0.00 in Snow Light Snow
12:53 AM 23.0 °F 8.0 °F 21.0 °F 92% 29.51 in 4.0 mi SSW 20.7 mph 26.5 mph 0.00 in Snow Light Snow
1:12 AM 24.1 °F 10.1 °F 21.9 °F 91% 29.46 in 2.0 mi SW 18.4 mph 28.8 mph 0.00 in Snow Light Snow
1:21 AM 24.1 °F 9.8 °F 23.0 °F 96% 29.46 in 1.8 mi SW 19.6 mph 29.9 mph 0.00 in Snow Light Snow
1:33 AM 24.1 °F 9.0 °F 23.0 °F 96% 29.46 in 2.0 mi SW 21.9 mph 28.8 mph 0.00 in Snow Light Snow
1:49 AM 24.8 °F 10.3 °F 23.0 °F 93% 29.45 in 1.5 mi SW 20.7 mph - 0.00 in Snow Light Snow
1:53 AM 24.1 °F 9.4 °F 23.0 °F 96% 29.48 in 1.2 mi SW 20.7 mph 31.1 mph 0.00 in Snow Light Snow
2:16 AM 25.0 °F 12.2 °F 24.1 °F 96% 29.44 in 2.0 mi SW 16.1 mph 26.5 mph 0.00 in Snow Light Snow
2:31 AM 26.1 °F 12.7 °F 26.1 °F 100% 29.43 in 1.8 mi SW 18.4 mph 26.5 mph 0.00 in Snow Light Snow
2:53 AM 27.0 °F 13.5 °F 26.1 °F 96% 29.45 in 1.0 mi WSW 19.6 mph 27.6 mph 0.00 in Snow Light Snow
3:10 AM 27.0 °F 14.3 °F 26.1 °F 96% 29.42 in 2.0 mi SW 17.3 mph - 0.00 in Snow Light Snow
3:40 AM 27.0 °F 13.5 °F 26.1 °F 96% 29.40 in 4.0 mi SW 19.6 mph - 0.00 in Snow Light Snow
3:53 AM 27.0 °F 13.2 °F 26.1 °F 96% 29.43 in 5.0 mi WSW 20.7 mph - 0.00 in Snow Light Snow
4:46 AM 28.9 °F 17.7 °F 28.0 °F 96% 29.39 in 4.0 mi WSW 15.0 mph - 0.00 in Rain Light Freezing Rain
4:53 AM 28.9 °F 17.7 °F 28.0 °F 96% 29.42 in 4.0 mi West 15.0 mph - 0.00 in Rain Light Freezing Rain
5:15 AM 30.0 °F 18.7 °F 28.9 °F 96% 29.40 in 3.0 mi West 16.1 mph - 0.00 in Snow Light Snow
5:32 AM 30.0 °F 19.1 °F 30.0 °F 100% 29.40 in 2.5 mi WNW 15.0 mph - 0.00 in Snow Light Snow
5:39 AM 30.0 °F 19.1 °F 28.9 °F 96% 29.41 in 6.0 mi WNW 15.0 mph - 0.00 in Snow Light Snow
5:48 AM 30.2 °F 20.2 °F 28.4 °F 93% 29.41 in 9.0 mi WNW 12.7 mph - 0.00 in   Mostly Cloudy
5:53 AM 30.0 °F 20.5 °F 28.0 °F 92% 29.44 in 10.0 mi WNW 11.5 mph - 0.00 in   Mostly Cloudy
6:53 AM 28.0 °F 17.0 °F 19.9 °F 72% 29.46 in 10.0 mi WNW 13.8 mph 21.9 mph N/A   Mostly Cloudy
7:53 AM 28.0 °F 16.1 °F 17.1 °F 63% 29.48 in 10.0 mi NW 16.1 mph 24.2 mph N/A   Scattered Clouds
8:53 AM 24.1 °F 10.1 °F 3.9 °F 42% 29.51 in 10.0 mi NW 18.4 mph 29.9 mph N/A   Overcast
9:53 AM 21.0 °F 4.6 °F 7.0 °F 55% 29.56 in 8.0 mi NNW 23.0 mph 31.1 mph 0.00 in   Overcast
10:53 AM 19.9 °F 4.8 °F 3.0 °F 48% 29.60 in 10.0 mi NNW 18.4 mph 34.5 mph 0.00 in   Mostly Cloudy
11:53 AM 19.0 °F 2.7 °F 3.0 °F 50% 29.62 in 10.0 mi NW 20.7 mph 32.2 mph 0.00 in   Scattered Clouds
12:53 PM 18.0 °F 2.2 °F -0.0 °F 45% 29.66 in 10.0 mi NW 18.4 mph 27.6 mph 0.00 in   Partly Cloudy
1:53 PM 16.0 °F -0.9 °F 1.0 °F 52% 29.69 in 10.0 mi NW 19.6 mph 27.6 mph N/A   Clear
2:53 PM 16.0 °F -1.3 °F -0.9 °F 47% 29.72 in 10.0 mi WNW 20.7 mph 27.6 mph N/A   Clear
3:53 PM 14.0 °F -2.0 °F -5.1 °F 43% 29.76 in 10.0 mi WNW 16.1 mph 27.6 mph N/A   Clear
4:53 PM 12.0 °F -6.0 °F -5.1 °F 46% 29.80 in 10.0 mi WNW 19.6 mph 27.6 mph N/A   Clear
5:53 PM 10.0 °F -7.6 °F -4.0 °F 53% 29.84 in 10.0 mi West 17.3 mph - N/A   Clear
6:53 PM 9.0 °F -7.9 °F -4.0 °F 56% 29.86 in 10.0 mi West 15.0 mph - N/A   Clear
7:53 PM 8.1 °F -8.4 °F -2.9 °F 61% 29.88 in 10.0 mi West 13.8 mph - N/A   Clear
8:53 PM 6.1 °F -10.9 °F -2.9 °F 67% 29.90 in 10.0 mi West 13.8 mph - N/A   Clear
9:53 PM 6.1 °F -7.8 °F -2.9 °F 67% 29.88 in 10.0 mi West 9.2 mph - N/A   Clear
10:53 PM 3.0 °F -9.3 °F -4.0 °F 73% 29.88 in 10.0 mi WSW 6.9 mph - N/A   Clear
11:53 PM 3.9 °F -9.4 °F -2.9 °F 73% 29.87 in 10.0 mi WSW 8.1 mph - N/A   Clear